QPF
0.00 0.00 0.00 0.00 0.00 0.00 0.00 0.00 0.00 0.00 0.00 0.00 0.00 0.00 0.00 0.00 0.00 0.00 0.00 0.00 0.00 0.00 0.00 0.00 0.00 0.00 0.00 0.00 0.00 0.00 0.00 0.00 0.00 0.00 0.00 0.00 0.00 0.00 0.00 0.00 0.00 0.00 0.00
0.00 0.00 0.00 0.00 0.00 0.00 0.00 0.00 0.00 0.00 0.00 0.00 0.00 0.00 0.00 0.00 0.00 0.00 0.00 0.00 0.00 0.00 0.00 0.00 0.00 0.00 0.00 0.00 0.00 0.00 0.00 0.00 0.00 0.00 0.00 0.00 0.00 0.00 0.00 0.00 0.00 0.00 0.00
0.00 0.00 0.00 0.00 0.00 0.00 0.00 0.00 0.00 0.00 0.00 0.00 0.00 0.00 0.00 0.00 0.00 0.00 0.00 0.00 0.00 0.00 0.00 0.00 0.00 0.00 0.00 0.00 0.00 0.00 0.00 0.00 0.00 0.00 0.00 0.00 0.00 0.00 0.00 0.00 0.00 0.00 0.00
0.00 0.00 0.00 0.00 0.00 0.00 0.00 0.00 0.00 0.00 0.00 0.00 0.00 0.00 0.00 0.00 0.00 0.00 0.00 0.00 0.00 0.00 0.00 0.00 0.00 0.00 0.00 0.00 0.00 0.00 0.00 0.00 0.00 0.00 0.00 0.00 0.00 0.00 0.00 0.00 0.00 0.00 0.00
0.01 0.01 0.01 0.00 0.00 0.00 0.00 0.00 0.00 0.00 0.00 0.00 0.00 0.00 0.00 0.00 0.00 0.00 0.00 0.00 0.01 0.01 0.01 0.01 0.01 0.02 0.02 0.01 0.01 0.01 0.00 0.00 0.00 0.00 0.00 0.00 0.00 0.00 0.00 0.00 0.00 0.00 0.00
0.00 0.00 0.00 0.00 0.00 0.00 0.00 0.00 0.00 0.00 0.00 0.01 0.01 0.00 0.00 0.00 0.00 0.01 0.01 0.01 0.01 0.02 0.02 0.02 0.02 0.01 0.00 0.00 0.00 0.00 0.00 0.00 0.00 0.00 0.00 0.00 0.00 0.00 0.00 0.00 0.00 0.00 0.00
0.00 0.00 0.00 0.00 0.00 0.00 0.00 0.00 0.01 0.01 0.01 0.02 0.01 0.01 0.01 0.00 0.00 0.01 0.02 0.03 0.02 0.02 0.02 0.02 0.01 0.00 0.00 0.00 0.00 0.00 0.00 0.00 0.00 0.00 0.00 0.00 0.00 0.00 0.00 0.00 0.00 0.00 0.00
0.00 0.00 0.00 0.00 0.00 0.00 0.00 0.00 0.00 0.02 0.02 0.02 0.02 0.02 0.03 0.00 0.00 0.00 0.00 0.01 0.01 0.01 0.01 0.00 0.00 0.00 0.00 0.00 0.00 0.00 0.00 0.00 0.00 0.00 0.00 0.00 0.00 0.00 0.00 0.00 0.00 0.00 0.00
0.00 0.00 0.00 0.00 0.00 0.00 0.00 0.00 0.00 0.00 0.01 0.01 0.02 0.03 0.03 0.00 0.00 0.00 0.00 0.01 0.01 0.00 0.00 0.00 0.00 0.00 0.00 0.00 0.00 0.00 0.00 0.00 0.00 0.00 0.00 0.00 0.00 0.00 0.00 0.00 0.00 0.00 0.00
0.00 0.00 0.01 0.02 0.01 0.00 0.00 0.00 0.00 0.00 0.00 0.00 0.00 0.01 0.02 0.01 0.00 0.00 0.00 0.00 0.01 0.00 0.00 0.00 0.00 0.00 0.00 0.00 0.00 0.00 0.00 0.00 0.00 0.00 0.00 0.00 0.00 0.00 0.00 0.00 0.00 0.00 0.00
0.00 0.00 0.01 0.02 0.01 0.01 0.01 0.02 0.02 0.02 0.02 0.02 0.01 0.00 0.00 0.00 0.00 0.00 0.00 0.00 0.00 0.00 0.00 0.00 0.00 0.00 0.00 0.00 0.00 0.00 0.00 0.00 0.00 0.00 0.00 0.00 0.00 0.00 0.00 0.00 0.00 0.00 0.00
0.00 0.01 0.01 0.00 0.01 0.02 0.03 0.03 0.01 0.01 0.01 0.01 0.00 0.00 0.00 0.00 0.00 0.00 0.00 0.00 0.00 0.01 0.04 0.04 0.02 0.00 0.00 0.00 0.00 0.00 0.00 0.00 0.00 0.00 0.00 0.00 0.00 0.00 0.00 0.00 0.00 0.00 0.00
0.01 0.01 0.00 0.00 0.00 0.01 0.03 0.04 0.02 0.02 0.01 0.01 0.01 0.01 0.02 0.01 0.01 0.00 0.00 0.00 0.00 0.00 0.04 0.05 0.01 0.00 0.00 0.00 0.00 0.00 0.00 0.00 0.00 0.00 0.00 0.00 0.00 0.00 0.00 0.00 0.00 0.00 0.00
0.02 0.04 0.02 0.01 0.00 0.00 0.02 0.05 0.06 0.06 0.08 0.09 0.08 0.08 0.06 0.07 0.07 0.05 0.00 0.00 0.00 0.00 0.00 0.00 0.00 0.00 0.00 0.00 0.00 0.00 0.00 0.00 0.00 0.00 0.00 0.00 0.00 0.00 0.00 0.00 0.00 0.00 0.00
0.02 0.05 0.06 0.05 0.01 0.00 0.00 0.00 0.00 0.02 0.09 0.11 0.11 0.12 0.09 0.09 0.07 0.06 0.02 0.01 0.00 0.00 0.00 0.00 0.00 0.00 0.00 0.00 0.00 0.00 0.00 0.00 0.00 0.00 0.00 0.00 0.00 0.00 0.00 0.00 0.00 0.00 0.00
0.01 0.00 0.00 0.01 0.01 0.00 0.00 0.00 0.00 0.01 0.03 0.03 0.06 0.06 0.09 0.04 0.02 0.01 0.00 0.00 0.00 0.00 0.00 0.00 0.00 0.00 0.00 0.00 0.00 0.00 0.00 0.00 0.00 0.00 0.00 0.00 0.00 0.00 0.00 0.00 0.00 0.00 0.00
0.00 0.00 0.00 0.00 0.00 0.00 0.00 0.00 0.01 0.00 0.00 0.00 0.00 0.00 0.00 0.00 0.00 0.00 0.00 0.00 0.00 0.00 0.00 0.00 0.00 0.00 0.00 0.00 0.00 0.00 0.00 0.00 0.00 0.00 0.00 0.00 0.00 0.00 0.00 0.00 0.00 0.00 0.00
0.00 0.00 0.00 0.00 0.00 0.00 0.00 0.00 0.00 0.00 0.00 0.00 0.00 0.00 0.00 0.00 0.00 0.00 0.00 0.00 0.00 0.00 0.00 0.00 0.00 0.00 0.00 0.00 0.00 0.00 0.00 0.00 0.00 0.00 0.00 0.00 0.00 0.00 0.00 0.00 0.00 0.00 0.00
0.00 0.00 0.00 0.00 0.00 0.00 0.00 0.00 0.00 0.00 0.00 0.00 0.00 0.00 0.00 0.00 0.00 0.00 0.00 0.00 0.00 0.00 0.00 0.00 0.00 0.00 0.00 0.00 0.00 0.00 0.00 0.00 0.00 0.00 0.00 0.00 0.00 0.00 0.00 0.00 0.00 0.00 0.00
0.00 0.00 0.00 0.00 0.00 0.00 0.00 0.00 0.00 0.00 0.00 0.00 0.00 0.00 0.00 0.00 0.00 0.00 0.00 0.00 0.00 0.00 0.00 0.00 0.00 0.00 0.00 0.00 0.00 0.00 0.00 0.00 0.00 0.00 0.00 0.00 0.00 0.00 0.00 0.00 0.00 0.00 0.00
0.00 0.00 0.00 0.00 0.00 0.00 0.00 0.00 0.00 0.00 0.00 0.00 0.00 0.00 0.00 0.00 0.00 0.00 0.00 0.00 0.00 0.00 0.00 0.00 0.00 0.00 0.00 0.00 0.00 0.00 0.00 0.00 0.00 0.00 0.00 0.00 0.00 0.00 0.00 0.00 0.00 0.00 0.01
0.00 0.00 0.00 0.00 0.00 0.00 0.00 0.00 0.00 0.00 0.00 0.00 0.00 0.00 0.00 0.00 0.00 0.00 0.00 0.00 0.00 0.00 0.00 0.00 0.00 0.00 0.00 0.00 0.00 0.00 0.00 0.00 0.00 0.00 0.00 0.00 0.00 0.00 0.00 0.00 0.00 0.00 0.01
0.00 0.00 0.00 0.00 0.00 0.00 0.00 0.00 0.00 0.00 0.00 0.00 0.00 0.00 0.00 0.00 0.00 0.00 0.00 0.00 0.00 0.00 0.00 0.00 0.00 0.00 0.00 0.00 0.00 0.00 0.00 0.00 0.00 0.00 0.00 0.00 0.00 0.00 0.00 0.00 0.00 0.01 0.01
0.02 0.01 0.01 0.02 0.02 0.01 0.00 0.00 0.00 0.00 0.00 0.00 0.00 0.00 0.00 0.00 0.00 0.00 0.00 0.00 0.00 0.00 0.00 0.00 0.00 0.00 0.00 0.00 0.00 0.00 0.00 0.00 0.00 0.00 0.00 0.00 0.00 0.00 0.00 0.00 0.00 0.00 0.00
0.05 0.06 0.07 0.05 0.02 0.01 0.00 0.00 0.00 0.00 0.00 0.00 0.00 0.00 0.00 0.01 0.01 0.00 0.00 0.00 0.00 0.00 0.00 0.00 0.00 0.00 0.00 0.00 0.00 0.00 0.00 0.00 0.00 0.00 0.00 0.00 0.00 0.00 0.00 0.00 0.00 0.00 0.00
0.05 0.07 0.08 0.09 0.09 0.05 0.03 0.02 0.01 0.01 0.01 0.01 0.02 0.02 0.01 0.01 0.01 0.00 0.00 0.00 0.00 0.00 0.00 0.00 0.00 0.00 0.00 0.00 0.00 0.00 0.00 0.00 0.00 0.00 0.00 0.00 0.00 0.00 0.00 0.00 0.00 0.00 0.00
MSLP
1016.62 1016.77 1016.78 1016.77 1016.90 1017.08 1017.16 1017.19 1017.36 1017.35 1017.71 1017.80 1018.28 1018.39 1018.23 1018.05 1017.57 1018.08 1018.86 1019.42 1018.24 1019.19 1018.97 1018.76 1019.39 1019.24 1019.17 1018.19 1018.25 1018.43 1019.48 1020.53 1019.57 1020.57 1022.01 1023.01 1024.30 1024.19 1024.66 1024.58 1024.38 1024.49 1025.21
1017.18 1017.44 1017.54 1017.53 1017.50 1017.56 1017.65 1017.91 1017.96 1018.08 1018.08 1018.30 1018.65 1018.60 1018.66 1018.78 1018.92 1019.01 1019.37 1019.56 1019.18 1019.60 1020.07 1019.42 1019.82 1019.47 1020.19 1020.09 1018.98 1019.57 1019.15 1020.25 1019.97 1021.65 1022.26 1023.64 1024.44 1024.54 1024.43 1024.48 1024.05 1023.79 1024.06
1016.98 1017.52 1017.93 1018.05 1018.09 1018.19 1018.34 1018.41 1018.69 1018.65 1018.71 1018.67 1018.83 1018.85 1019.26 1019.44 1019.75 1020.11 1020.06 1020.37 1019.84 1020.06 1020.45 1020.62 1020.06 1019.87 1020.93 1021.25 1020.74 1020.97 1020.09 1019.80 1020.93 1021.63 1022.88 1023.49 1023.89 1024.32 1024.46 1024.30 1024.28 1024.19 1024.25
1016.62 1017.19 1017.78 1018.31 1018.53 1018.64 1018.78 1018.80 1018.87 1019.05 1019.10 1019.11 1019.21 1019.53 1019.63 1019.83 1020.20 1020.62 1020.76 1020.57 1020.66 1020.82 1021.17 1020.97 1020.88 1020.58 1021.58 1021.19 1021.90 1021.80 1021.37 1021.20 1021.71 1022.24 1023.04 1023.02 1023.50 1023.59 1023.58 1023.58 1023.68 1023.45 1023.26
1016.77 1017.10 1017.54 1018.04 1018.56 1018.92 1019.05 1019.09 1019.12 1019.17 1019.32 1019.40 1019.59 1019.87 1020.19 1020.37 1020.60 1020.83 1020.87 1021.14 1021.35 1021.59 1021.59 1021.38 1021.51 1021.84 1022.01 1022.55 1022.76 1022.64 1022.82 1021.96 1022.09 1022.32 1022.77 1022.66 1022.74 1022.58 1022.97 1022.96 1022.69 1022.49 1022.64
1017.62 1017.93 1018.02 1018.35 1018.42 1018.59 1018.93 1019.28 1019.18 1019.09 1019.11 1019.31 1019.53 1019.80 1020.13 1020.19 1020.77 1021.04 1021.16 1021.51 1021.69 1022.03 1021.68 1021.46 1021.70 1022.00 1022.16 1022.52 1022.42 1022.48 1022.66 1022.22 1022.32 1022.45 1022.22 1022.19 1022.12 1022.04 1022.28 1022.47 1022.27 1022.28 1022.30
1017.87 1018.34 1018.58 1018.76 1018.96 1019.09 1019.08 1019.22 1019.07 1018.84 1018.57 1018.87 1019.04 1019.21 1019.39 1019.75 1020.46 1020.82 1020.94 1021.05 1021.29 1021.63 1021.26 1021.48 1021.64 1022.04 1022.33 1022.32 1022.55 1022.45 1022.17 1022.27 1022.54 1022.35 1022.06 1021.79 1021.91 1022.01 1022.24 1022.34 1022.30 1022.60 1022.43
1018.05 1018.36 1018.44 1018.69 1019.00 1019.26 1019.33 1019.33 1018.94 1018.80 1018.30 1018.36 1018.49 1018.65 1019.21 1019.54 1020.32 1020.72 1020.97 1021.06 1021.06 1021.12 1021.05 1021.31 1021.36 1021.93 1022.02 1022.06 1022.31 1022.38 1022.25 1022.19 1022.32 1022.13 1022.25 1022.35 1022.43 1022.15 1022.29 1022.44 1022.60 1022.65 1022.54
1017.89 1018.07 1018.12 1018.29 1018.67 1018.70 1019.16 1019.33 1019.20 1019.12 1018.95 1018.56 1018.68 1018.91 1019.04 1019.71 1020.38 1020.64 1020.60 1020.86 1021.23 1021.34 1021.25 1021.26 1021.23 1021.60 1021.71 1021.92 1022.12 1022.11 1022.11 1021.90 1022.01 1022.10 1022.54 1022.71 1022.94 1022.98 1023.01 1022.86 1022.43 1021.86 1021.10
1017.56 1017.73 1017.66 1017.94 1018.39 1018.33 1018.88 1019.24 1019.26 1019.43 1019.29 1019.25 1019.35 1019.52 1019.65 1019.68 1020.31 1020.70 1020.98 1020.87 1020.99 1020.85 1020.93 1021.18 1021.50 1021.75 1021.76 1022.00 1022.29 1022.12 1021.87 1021.55 1021.35 1021.57 1021.94 1022.04 1022.25 1022.23 1022.83 1022.95 1022.55 1021.66 1020.93
1017.20 1017.40 1017.45 1017.58 1017.89 1018.03 1018.50 1018.88 1019.16 1019.16 1019.07 1019.24 1019.39 1019.35 1019.43 1019.67 1020.05 1020.47 1020.81 1020.75 1020.38 1020.58 1020.67 1020.60 1020.84 1021.17 1021.71 1021.92 1021.86 1021.97 1021.71 1021.58 1021.03 1020.90 1020.88 1020.73 1020.62 1020.63 1020.61 1020.95 1020.91 1020.99 1020.51
1016.43 1016.73 1017.24 1017.39 1017.71 1017.36 1017.39 1017.82 1018.08 1017.81 1017.90 1018.16 1018.34 1018.55 1018.93 1019.23 1019.59 1019.86 1020.23 1020.45 1020.38 1020.18 1020.01 1019.77 1020.03 1020.43 1020.77 1021.28 1021.70 1021.53 1021.65 1021.52 1020.90 1020.36 1019.93 1019.60 1019.33 1019.04 1018.95 1018.91 1019.05 1019.43 1019.42
1015.98 1016.10 1016.43 1016.99 1017.08 1017.01 1017.36 1017.08 1017.02 1017.22 1017.18 1017.44 1017.63 1017.87 1018.18 1018.68 1019.07 1019.47 1019.69 1019.96 1020.15 1020.29 1020.03 1020.09 1019.88 1019.80 1020.28 1020.72 1020.77 1020.98 1021.19 1020.96 1020.31 1019.60 1018.97 1018.60 1018.35 1018.18 1018.16 1018.35 1018.55 1018.67 1018.67
1014.90 1015.40 1015.68 1016.12 1016.27 1016.29 1016.51 1016.86 1017.02 1017.07 1017.37 1017.51 1017.63 1017.79 1018.12 1018.38 1018.47 1018.74 1019.22 1019.63 1019.74 1019.94 1019.96 1019.79 1019.68 1019.63 1019.75 1019.61 1019.73 1020.16 1020.27 1019.77 1019.37 1018.76 1018.32 1017.96 1017.68 1017.62 1017.87 1017.78 1017.67 1017.44 1017.00
1013.94 1014.73 1015.10 1015.34 1015.36 1015.28 1015.47 1015.41 1015.60 1015.86 1016.32 1016.86 1016.96 1017.05 1017.27 1017.36 1017.27 1017.70 1017.87 1018.28 1018.34 1018.58 1018.51 1018.24 1018.34 1018.44 1018.44 1018.49 1018.56 1018.40 1018.48 1018.64 1018.69 1018.49 1018.08 1017.79 1017.78 1017.53 1017.18 1016.92 1016.68 1016.50 1016.29
1013.31 1013.33 1013.35 1013.50 1014.09 1013.71 1014.18 1014.24 1014.86 1015.15 1015.65 1016.04 1016.15 1016.35 1016.77 1016.78 1016.71 1017.09 1017.64 1017.86 1017.98 1017.66 1017.78 1017.20 1016.92 1016.85 1016.78 1016.78 1016.74 1016.84 1017.02 1017.20 1017.09 1017.02 1017.05 1016.98 1016.80 1016.46 1016.16 1016.07 1016.07 1015.98 1015.65
1012.77 1012.75 1012.74 1012.75 1012.68 1012.68 1013.00 1013.66 1014.23 1014.76 1015.01 1015.25 1015.53 1015.86 1016.31 1016.77 1017.00 1017.12 1017.40 1017.59 1017.75 1017.75 1017.25 1016.69 1016.29 1016.02 1015.76 1015.71 1015.67 1015.56 1015.47 1015.45 1015.55 1015.74 1015.81 1015.76 1015.56 1015.56 1015.56 1015.51 1015.46 1015.56 1015.26
1011.45 1011.77 1012.00 1012.09 1011.62 1011.83 1012.08 1012.59 1013.21 1013.25 1013.71 1014.03 1014.53 1014.96 1015.37 1015.92 1016.48 1016.87 1017.07 1017.33 1017.23 1017.30 1016.61 1016.02 1015.71 1015.22 1014.92 1014.79 1014.76 1014.71 1014.62 1014.63 1014.67 1014.68 1014.61 1014.68 1014.95 1015.40 1015.64 1015.68 1015.64 1015.55 1015.27
1010.66 1010.79 1010.94 1011.13 1010.94 1010.90 1010.99 1011.47 1011.55 1011.50 1012.01 1012.08 1012.28 1014.05 1014.51 1015.31 1016.00 1016.34 1016.67 1016.28 1015.66 1015.27 1015.17 1015.30 1015.14 1014.66 1014.25 1014.07 1014.04 1013.99 1013.96 1013.92 1013.98 1014.19 1014.41 1014.72 1015.10 1015.48 1015.69 1015.84 1015.86 1015.78 1015.50
1010.04 1010.26 1010.17 1010.01 1010.08 1010.11 1010.06 1009.98 1010.19 1010.20 1010.30 1010.52 1010.71 1011.64 1012.32 1014.63 1015.10 1015.22 1015.24 1015.01 1014.60 1014.19 1013.55 1013.08 1012.90 1012.91 1012.90 1012.92 1012.94 1012.98 1013.29 1013.77 1013.93 1014.38 1014.81 1015.29 1015.56 1015.94 1016.10 1016.12 1016.02 1016.18 1015.73
1008.63 1009.01 1009.86 1009.84 1009.21 1009.03 1009.13 1009.13 1009.19 1009.06 1009.14 1009.31 1009.56 1009.62 1010.15 1011.83 1012.45 1012.52 1012.46 1012.79 1012.92 1012.75 1012.40 1012.27 1012.13 1011.98 1012.00 1012.09 1012.28 1012.59 1013.13 1013.70 1014.22 1014.56 1015.21 1015.97 1016.43 1016.30 1016.61 1016.80 1016.76 1016.26 1015.78
1007.68 1007.91 1008.35 1008.85 1008.94 1008.56 1008.50 1008.50 1008.60 1008.53 1008.80 1008.54 1008.69 1009.03 1009.69 1009.91 1010.13 1010.16 1010.14 1010.19 1010.58 1010.72 1010.69 1010.99 1011.26 1011.33 1011.59 1012.00 1012.72 1013.45 1014.05 1014.38 1015.09 1015.70 1016.05 1016.13 1016.42 1016.85 1017.02 1016.85 1016.44 1015.85 1015.18
1007.03 1007.50 1008.06 1008.13 1008.13 1007.89 1007.69 1007.64 1007.85 1007.99 1008.14 1008.15 1008.04 1008.24 1009.28 1008.82 1008.92 1009.38 1009.47 1009.25 1009.71 1009.97 1010.19 1010.88 1011.59 1011.95 1012.22 1013.44 1014.39 1015.00 1015.27 1015.64 1016.00 1016.22 1016.28 1016.42 1016.50 1016.62 1016.68 1016.35 1015.74 1015.02 1014.42
1006.87 1006.80 1007.20 1006.97 1007.17 1008.09 1007.55 1006.87 1006.86 1006.67 1006.70 1006.73 1007.06 1007.26 1007.46 1008.15 1008.53 1008.30 1009.10 1009.51 1009.65 1009.89 1010.59 1011.59 1012.62 1013.42 1014.10 1014.84 1015.51 1015.77 1015.99 1016.29 1016.45 1016.50 1016.68 1016.64 1016.46 1016.48 1016.25 1015.63 1015.03 1014.34 1013.71
1007.89 1007.50 1007.34 1007.16 1006.58 1006.68 1007.68 1007.79 1006.40 1006.00 1005.92 1006.20 1006.54 1006.68 1006.74 1007.00 1007.61 1008.30 1009.84 1009.97 1010.48 1011.29 1012.42 1013.22 1014.01 1014.64 1015.12 1015.36 1015.58 1015.96 1016.63 1017.03 1017.13 1017.25 1016.90 1016.44 1016.21 1015.72 1015.28 1014.78 1014.18 1013.67 1013.22
1009.39 1009.21 1008.41 1007.97 1007.37 1007.22 1007.08 1007.12 1006.05 1005.44 1006.01 1006.30 1005.33 1005.99 1006.90 1007.60 1008.39 1009.48 1010.61 1012.09 1012.67 1013.03 1013.44 1014.15 1014.77 1014.95 1015.40 1015.52 1016.24 1016.87 1017.06 1017.27 1017.08 1017.08 1016.89 1016.09 1015.30 1014.87 1014.35 1013.94 1013.78 1013.58 1013.35
Thickness
5600 5597 5594 5591 5588 5585 5585 5587 5587 5589 5589 5589 5588 5590 5591 5594 5598 5596 5590 5589 5600 5595 5600 5603 5602 5608 5608 5615 5614 5613 5603 5598 5603 5601 5592 5580 5568 5573 5572 5571 5572 5573 5570
5581 5575 5572 5569 5567 5563 5561 5560 5561 5564 5566 5566 5567 5571 5574 5573 5573 5572 5572 5571 5576 5577 5576 5584 5581 5586 5579 5580 5592 5591 5591 5582 5590 5573 5575 5561 5555 5554 5555 5556 5562 5564 5563
5567 5560 5553 5547 5543 5539 5536 5536 5535 5539 5542 5545 5547 5552 5550 5550 5551 5548 5551 5550 5557 5557 5555 5554 5560 5566 5558 5559 5564 5562 5569 5573 5569 5563 5554 5551 5548 5542 5542 5544 5545 5545 5544
5554 5543 5534 5523 5517 5514 5514 5515 5515 5516 5519 5524 5526 5527 5530 5531 5530 5527 5529 5534 5534 5535 5531 5534 5536 5541 5536 5542 5538 5540 5545 5547 5546 5544 5537 5537 5536 5535 5537 5536 5533 5536 5535
5534 5528 5519 5510 5502 5497 5495 5496 5498 5499 5500 5503 5506 5507 5509 5512 5514 5514 5516 5515 5514 5510 5510 5514 5515 5515 5518 5516 5516 5520 5518 5527 5530 5530 5525 5528 5527 5530 5525 5525 5526 5527 5525
5513 5506 5502 5495 5493 5491 5487 5483 5485 5486 5488 5489 5490 5493 5495 5498 5497 5499 5499 5497 5497 5494 5498 5502 5502 5500 5502 5504 5505 5506 5508 5514 5514 5515 5518 5518 5517 5519 5518 5515 5515 5514 5511
5499 5490 5484 5480 5478 5476 5475 5474 5476 5478 5481 5480 5481 5483 5486 5488 5485 5487 5488 5489 5489 5489 5493 5493 5493 5492 5491 5493 5494 5497 5501 5501 5500 5503 5505 5508 5507 5504 5504 5503 5502 5499 5499
5486 5479 5476 5471 5468 5465 5462 5462 5467 5468 5475 5475 5475 5476 5474 5476 5473 5475 5476 5477 5480 5480 5483 5483 5486 5482 5481 5483 5485 5486 5488 5488 5487 5490 5491 5491 5490 5493 5492 5491 5490 5489 5489
5479 5473 5470 5467 5463 5463 5459 5456 5457 5459 5461 5465 5465 5464 5465 5464 5461 5464 5470 5470 5468 5468 5472 5472 5475 5475 5474 5472 5474 5475 5476 5478 5480 5482 5481 5482 5482 5483 5483 5481 5484 5488 5491
5476 5468 5466 5462 5457 5460 5454 5451 5451 5450 5451 5452 5452 5451 5451 5455 5451 5453 5455 5459 5460 5463 5463 5463 5461 5464 5465 5465 5467 5469 5472 5476 5480 5480 5481 5482 5482 5481 5478 5475 5477 5482 5483
5474 5466 5462 5459 5456 5455 5451 5448 5446 5447 5447 5446 5445 5447 5447 5447 5447 5445 5446 5450 5454 5455 5456 5460 5462 5461 5458 5460 5463 5466 5470 5475 5481 5484 5486 5487 5487 5487 5487 5485 5481 5476 5477
5479 5469 5460 5457 5453 5455 5456 5453 5451 5454 5455 5453 5451 5448 5446 5445 5443 5443 5442 5443 5448 5453 5457 5462 5462 5461 5462 5462 5462 5466 5469 5473 5480 5484 5487 5489 5493 5496 5494 5491 5487 5483 5478
5480 5475 5468 5459 5456 5455 5452 5455 5455 5455 5457 5456 5455 5454 5452 5449 5448 5445 5445 5445 5446 5448 5454 5455 5460 5463 5464 5465 5468 5470 5471 5475 5479 5484 5489 5492 5494 5493 5490 5486 5479 5472 5470
5488 5481 5475 5468 5464 5461 5459 5456 5455 5456 5454 5454 5455 5455 5453 5452 5453 5451 5448 5446 5447 5451 5455 5460 5464 5467 5470 5474 5474 5471 5472 5477 5480 5485 5487 5490 5491 5487 5480 5477 5476 5475 5476
5496 5485 5479 5475 5473 5473 5470 5471 5468 5468 5464 5461 5463 5464 5464 5464 5466 5463 5465 5464 5467 5466 5470 5474 5475 5476 5477 5478 5479 5482 5482 5480 5478 5478 5481 5481 5476 5475 5476 5475 5473 5469 5464
5498 5496 5494 5492 5483 5487 5481 5480 5473 5472 5469 5467 5468 5469 5468 5469 5470 5470 5467 5467 5468 5472 5474 5481 5484 5486 5487 5487 5488 5487 5484 5483 5484 5483 5479 5476 5476 5477 5475 5470 5462 5456 5452
5498 5498 5497 5495 5495 5493 5489 5482 5477 5474 5470 5469 5470 5470 5467 5468 5468 5470 5469 5468 5468 5469 5477 5482 5485 5487 5489 5490 5489 5490 5489 5488 5486 5482 5479 5478 5476 5473 5466 5462 5455 5445 5442
5508 5501 5500 5498 5501 5497 5494 5490 5484 5485 5482 5483 5474 5475 5474 5471 5469 5469 5468 5466 5472 5470 5477 5482 5483 5487 5489 5489 5488 5488 5488 5487 5485 5483 5481 5476 5468 5460 5452 5445 5439 5430 5426
5509 5507 5506 5503 5504 5502 5501 5496 5496 5497 5494 5495 5496 5480 5479 5473 5470 5468 5466 5475 5481 5484 5483 5480 5481 5484 5487 5488 5487 5486 5485 5484 5481 5476 5470 5464 5456 5447 5440 5431 5423 5411 5403
5509 5504 5504 5509 5508 5506 5506 5505 5503 5504 5505 5505 5506 5500 5496 5477 5479 5479 5477 5479 5482 5485 5489 5492 5493 5492 5492 5490 5488 5486 5482 5476 5471 5463 5455 5445 5437 5428 5421 5415 5408 5395 5388
5516 5512 5502 5504 5509 5510 5509 5508 5507 5508 5510 5510 5510 5512 5505 5499 5495 5494 5494 5490 5488 5489 5492 5492 5493 5493 5491 5488 5483 5478 5472 5464 5457 5450 5439 5427 5418 5413 5404 5392 5383 5374 5365
5517 5516 5511 5506 5505 5507 5508 5508 5507 5508 5506 5509 5512 5513 5498 5504 5506 5505 5504 5502 5499 5498 5498 5495 5492 5490 5485 5477 5471 5462 5454 5447 5438 5428 5419 5413 5404 5393 5383 5374 5367 5361 5356
5515 5511 5506 5504 5505 5506 5508 5510 5508 5507 5506 5507 5509 5510 5500 5506 5506 5500 5500 5502 5498 5495 5493 5485 5479 5473 5467 5456 5447 5439 5433 5425 5418 5411 5405 5397 5389 5379 5368 5360 5355 5354 5354
5512 5511 5505 5507 5503 5493 5499 5505 5509 5509 5512 5512 5511 5511 5509 5500 5497 5500 5494 5491 5489 5487 5479 5469 5460 5452 5443 5435 5427 5422 5416 5408 5401 5395 5387 5381 5375 5364 5357 5353 5350 5351 5351
5493 5498 5498 5499 5505 5503 5493 5492 5507 5511 5512 5511 5509 5509 5509 5505 5493 5492 5477 5473 5470 5464 5453 5445 5438 5431 5425 5420 5415 5408 5400 5391 5384 5378 5372 5366 5360 5356 5352 5349 5347 5348 5349
5462 5463 5470 5480 5489 5490 5489 5488 5501 5509 5502 5501 5512 5506 5493 5483 5476 5467 5462 5451 5444 5439 5435 5428 5423 5417 5410 5407 5397 5390 5384 5376 5371 5365 5357 5354 5352 5349 5348 5346 5343 5342 5342